Location: Albany
(35.0000°S, 118.0000°E)
Time: 22:36:26
(UTC-04:00)

ISS - All Passes

Search period start: 01 August 2014 00:00
Search period end: 11 August 2014 00:00
Orbit: 411 x 419 km, 51.6° (Epoch: 01 August)

Date Brightness Start Highest point End Pass type
(mag) Time Alt. Az. Time Alt. Az. Time Alt. Az.
01 Aug - 03:48:46 10° SSW 03:51:24 21° SSE 03:54:01 10° E daylight
01 Aug - 05:25:04 10° WSW 05:28:12 37° NW 05:31:19 10° NNE daylight
01 Aug - 20:28:24 10° NNW 20:31:27 32° NE 20:34:31 10° ESE daylight
01 Aug - 22:05:25 10° W 22:08:11 23° SSW 22:10:59 10° SSE daylight
02 Aug - 03:00:28 10° S 03:02:21 14° SSE 03:04:13 10° ESE daylight
02 Aug - 04:36:04 10° SW 04:39:26 78° NW 04:42:46 10° NE daylight
02 Aug - 19:40:28 10° N 19:42:45 17° NE 19:45:02 10° E daylight
02 Aug - 21:16:03 10° WNW 21:19:14 38° SW 21:22:26 10° SSE daylight
03 Aug - 03:47:16 10° SW 03:50:35 53° SE 03:53:52 10° ENE daylight
03 Aug - 05:25:38 10° WNW 05:26:55 12° NW 05:28:11 10° NNW daylight
03 Aug - 20:26:58 10° NW 20:30:20 72° SW 20:33:43 10° SE daylight
03 Aug - 22:06:18 10° SW 22:07:34 12° SSW 22:08:49 10° S daylight
04 Aug - 02:58:37 10° SSW 03:01:39 30° SE 03:04:39 10° E daylight
04 Aug - 04:35:33 10° WSW 04:38:14 22° NW 04:40:54 10° N daylight
04 Aug - 19:38:11 10° NNW 19:41:30 56° NE 19:44:50 10° SE daylight
04 Aug - 21:16:10 10° WSW 21:18:27 17° SSW 21:20:44 10° SSE daylight
05 Aug - 02:10:07 10° SSW 02:12:38 19° SSE 02:15:08 10° E daylight
05 Aug - 03:46:17 10° WSW 03:49:30 43° NW 03:52:40 10° NNE daylight
05 Aug - 18:49:46 10° NNW 18:52:43 28° NE 18:55:41 10° ESE daylight
05 Aug - 20:26:31 10° W 20:29:24 25° SW 20:32:18 10° SSE daylight
06 Aug - 01:21:52 10° S 01:23:32 13° SSE 01:25:12 10° SE daylight
06 Aug - 02:57:18 10° SW 03:00:41 89° NW 03:04:01 10° NE daylight
06 Aug - 18:01:58 10° NNE 18:03:59 15° NE 18:06:02 10° E visible
06 Aug - 19:37:10 10° WNW 19:40:25 43° SW 19:43:41 10° SE daylight
07 Aug - 02:08:30 10° SW 02:11:47 47° SE 02:15:01 10° ENE daylight
07 Aug - 03:46:26 10° W 03:48:09 14° NW 03:49:53 10° NNW daylight
07 Aug - 18:48:07 10° NW 18:51:30 83° SW 18:54:55 10° SE daylight
07 Aug - 20:27:08 10° SW 20:28:41 13° SSW 20:30:13 10° S daylight
08 Aug - 01:19:51 10° SSW 01:22:48 27° SE 01:25:43 10° E daylight
08 Aug - 02:56:36 10° WSW 02:59:26 25° NW 03:02:15 10° N daylight
08 Aug - 17:59:22 10° NNW 18:02:38 48° NE 18:05:56 10° ESE visible
08 Aug - 19:37:06 10° WSW 19:39:33 18° SSW 19:42:00 10° SSE daylight
09 Aug - 00:31:21 10° SSW 00:33:44 18° SSE 00:36:05 10° ESE daylight
09 Aug - 02:07:22 10° WSW 02:10:39 50° NW 02:13:53 10° NNE daylight
09 Aug - 17:11:02 10° N 17:13:51 25° NE 17:16:41 10° ESE visible
09 Aug - 18:47:29 10° W 18:50:29 28° SW 18:53:29 10° SSE daylight
09 Aug - 23:43:09 10° S 23:44:35 12° SSE 23:46:01 10° SE daylight
10 Aug - 01:18:23 10° SW 01:21:47 80° SE 01:25:07 10° NE daylight
10 Aug - 16:23:25 10° NNE 16:25:06 13° NE 16:26:48 10° E visible
10 Aug - 17:58:11 10° WNW 18:01:28 49° SW 18:04:48 10° SE visible
